Wind_Speed
51 49 43 43 43 39 40 39 37 32 31 32 32 39 40 39 36 40 47 50 55 56 54 54 55 51 52 49 50 48 44 48 55 54 49 54 56 54
54 54 51 50 47 45 45 45 41 36 34 34 35 38 41 44 44 42 45 50 56 57 57 58 54 60 57 58 58 53 53 52 53 58 60 61 61 61
58 54 53 52 50 50 48 48 48 44 38 37 38 38 41 45 47 44 45 49 50 52 55 60 62 61 60 63 62 63 60 61 58 60 60 63 66 59
58 59 56 56 54 54 52 53 52 51 44 40 40 39 40 43 48 43 41 44 45 51 56 55 56 58 61 65 65 66 66 65 65 63 65 61 64 67
57 58 56 54 55 58 57 57 58 56 47 43 41 41 39 40 42 48 48 45 46 54 53 55 57 59 58 54 60 65 66 69 70 66 68 71 66 67
62 62 62 59 60 60 60 60 54 53 50 49 46 42 43 41 43 45 47 49 47 46 50 56 55 55 63 65 59 55 60 65 69 71 71 71 65 68
67 66 63 60 59 64 63 60 58 52 52 53 51 46 44 46 43 44 49 53 48 55 52 54 57 58 56 59 68 70 69 68 65 68 70 71 72 74
70 69 65 64 57 63 62 55 57 58 52 53 55 52 50 51 52 48 49 54 56 57 57 62 56 58 56 56 59 63 72 74 77 79 79 77 80 78
73 70 64 53 57 65 59 57 60 66 64 65 56 56 57 58 58 59 55 54 62 59 65 69 63 56 62 62 66 62 64 67 70 72 76 77 77 77
78 72 65 64 69 71 70 67 66 62 64 68 67 69 66 69 61 60 56 58 63 64 68 64 69 74 68 69 68 72 74 76 77 78 79 82 82 83
78 76 74 75 76 79 80 77 77 79 79 79 79 76 73 70 70 65 69 57 56 68 69 69 69 73 76 76 76 77 79 80 82 84 84 84 86 87
80 80 79 79 79 77 79 79 83 82 82 81 85 80 76 77 72 73 73 76 67 70 68 71 73 76 80 82 81 84 86 88 90 90 90 90 91 92
83 83 81 82 84 81 83 84 85 85 82 79 82 82 83 81 81 81 80 81 81 68 73 70 74 77 83 83 82 83 83 86 86 87 88 89 90 92
91 88 87 87 86 86 87 91 89 90 91 89 92 91 92 89 84 86 88 85 82 77 80 77 74 80 76 81 88 88 87 86 85 84 86 86 86 89
96 96 94 92 89 90 90 91 87 95 96 97 97 95 91 90 90 83 79 80 79 81 78 79 81 82 83 83 90 92 92 93 91 90 92 95 96 96
92 94 96 98 97 96 96 97 95 100 96 95 96 90 93 90 86 82 83 82 80 82 85 87 84 85 87 87 89 92 97 99 99 99 99 101 101 102
89 90 91 92 94 95 96 97 95 94 94 94 96 95 98 91 87 86 87 86 89 89 88 88 93 96 89 90 90 91 96 98 97 96 97 98 99 100
85 86 89 91 92 92 92 93 94 97 97 96 99 98 101 102 98 94 92 90 90 92 92 94 96 100 101 95 96 95 98 99 97 97 98 98 101 104
91 91 90 91 91 93 97 99 95 97 100 100 99 102 101 105 103 103 102 103 107 106 105 101 100 99 106 104 103 107 106 104 103 103 104 103 103 103
100 100 100 99 98 96 97 98 101 104 108 110 114 114 115 113 113 112 110 107 106 105 105 102 104 110 110 111 108 109 110 105 112 114 112 109 111 111
108 108 108 107 107 108 109 110 110 110 110 110 110 112 115 119 117 120 121 121 120 119 117 116 114 112 112 112 112 113 114 114 115 118 119 119 115 115
110 111 111 111 112 114 115 116 117 118 118 118 119 120 121 122 122 122 122 124 124 123 122 122 125 125 123 119 119 120 126 130 127 127 127 124 121 123
103 104 106 108 109 112 113 116 117 117 118 120 121 121 121 120 121 121 122 123 124 123 121 121 120 121 122 123 125 128 130 132 131 130 131 132 133 133
Wind_Direction
261 262 261 265 275 274 269 277 276 280 289 292 273 261 259 260 260 246 244 247 249 251 256 255 257 255 257 263 269 267 261 266 260 262 268 272 276 281
261 262 260 265 272 271 270 273 275 275 280 284 285 269 262 260 255 260 248 247 247 249 255 254 257 254 259 261 266 264 264 268 270 267 266 269 276 279
258 257 260 264 267 270 270 270 273 276 273 276 280 277 263 262 258 260 255 254 254 253 253 252 252 255 258 258 261 261 262 270 269 272 274 274 277 279
259 259 261 262 263 266 271 271 274 275 273 271 278 281 270 260 257 258 259 260 259 258 256 256 255 253 257 261 264 262 266 270 267 271 272 271 274 280
248 253 256 257 259 264 264 268 272 273 272 268 273 277 281 268 261 260 261 265 268 266 263 260 252 252 251 259 264 265 266 269 265 266 267 269 274 278
248 249 251 256 260 264 268 276 275 271 269 267 271 275 278 279 269 267 266 264 267 263 260 262 262 259 252 251 255 257 262 263 265 266 267 269 273 278
244 247 251 256 264 271 270 265 266 267 269 269 269 275 276 274 275 271 266 261 264 265 265 262 261 256 263 261 257 256 258 260 265 269 270 271 273 277
246 250 255 257 260 260 267 265 264 264 269 263 271 273 275 278 276 275 274 263 263 261 262 266 269 268 258 262 263 264 261 262 265 268 270 273 274 277
250 251 252 250 248 250 257 263 263 268 267 264 269 272 274 275 279 276 273 268 260 261 267 268 268 267 269 268 258 260 265 266 266 267 269 272 274 277
249 250 249 245 245 246 255 257 261 262 263 261 263 268 275 273 277 276 272 265 258 255 259 263 264 264 268 267 266 264 265 267 268 268 269 271 274 275
249 247 247 247 247 249 253 255 255 263 263 264 266 269 271 272 275 271 272 265 265 258 253 256 259 260 261 262 263 265 268 271 271 271 271 272 273 275
246 248 248 250 252 252 254 257 261 263 265 269 270 268 266 269 272 272 270 273 270 267 266 263 267 269 269 269 268 265 266 268 269 271 273 274 274 275
246 247 247 250 251 252 253 255 258 263 267 267 264 266 265 270 272 271 270 273 275 271 266 264 266 268 266 266 269 269 271 271 272 272 273 273 274 274
247 247 248 248 251 253 254 258 261 259 264 264 266 266 267 272 272 271 271 272 273 272 270 270 268 272 272 271 268 268 269 270 271 271 271 271 273 274
249 249 250 251 253 255 256 258 260 261 265 265 267 267 269 269 270 271 268 268 272 270 267 269 269 267 270 272 269 267 268 268 270 271 273 274 275 276
253 253 253 253 253 254 255 257 257 258 261 259 263 264 265 267 267 263 262 264 267 267 270 271 273 268 270 270 269 269 271 270 271 271 272 274 276 279
253 253 253 253 254 254 255 254 255 256 258 256 260 262 263 264 262 263 263 263 266 271 269 272 273 274 270 268 274 272 272 273 273 274 275 276 277 280
252 251 251 250 250 251 251 251 250 251 253 255 256 257 259 261 263 262 261 262 262 265 267 270 271 270 275 273 274 277 275 274 274 273 274 274 276 277
252 253 253 253 252 250 248 249 248 251 254 256 256 255 256 255 258 261 263 264 264 266 266 269 265 265 266 269 271 273 275 273 274 274 275 276 278 277
251 252 252 251 250 250 250 250 251 251 249 250 250 250 252 254 254 256 257 261 263 264 262 265 261 261 269 270 271 270 272 271 271 273 276 277 278 276
252 251 252 252 253 252 252 252 253 252 252 252 253 253 254 256 258 257 259 260 261 262 263 264 265 265 267 269 269 269 270 273 275 274 278 279 277 276
254 255 255 255 254 254 254 255 255 255 256 256 256 257 257 257 257 257 257 258 261 262 264 264 263 264 264 263 264 266 267 270 272 274 275 279 279 279
257 257 257 257 257 257 257 257 258 258 257 258 258 259 260 260 261 261 260 260 261 263 263 263 263 264 263 262 261 264 267 269 270 272 274 275 277 278
Height
10611 10612 10611 10612 10612 10613 10612 10613 10614 10612 10609 10607 10608 10609 10609 10610 10612 10613 10614 10616 10619 10622 10624 10626 10628 10629 10630 10630 10631 10633 10632 10632 10631 10630 10629 10627 10627 10626
10598 10600 10600 10601 10601 10602 10602 10602 10604 10605 10604 10600 10598 10598 10600 10601 10601 10603 10604 10605 10608 10609 10611 10614 10616 10617 10618 10619 10620 10621 10621 10621 10620 10619 10619 10616 10616 10615
10584 10586 10588 10589 10590 10590 10591 10591 10592 10593 10595 10592 10590 10589 10588 10589 10590 10591 10591 10593 10595 10597 10599 10600 10602 10604 10606 10607 10608 10608 10609 10610 10608 10607 10606 10605 10604 10602
10570 10573 10574 10576 10577 10578 10578 10578 10579 10580 10581 10582 10579 10579 10578 10577 10578 10579 10579 10581 10582 10584 10584 10586 10588 10590 10592 10593 10594 10595 10596 10596 10595 10594 10593 10592 10591 10589
10553 10558 10559 10562 10564 10564 10564 10564 10564 10567 10567 10569 10569 10568 10567 10565 10566 10567 10568 10568 10570 10568 10569 10571 10574 10576 10578 10580 10581 10581 10582 10581 10581 10580 10578 10578 10576 10574
10540 10544 10546 10550 10550 10551 10553 10552 10552 10553 10554 10554 10556 10557 10556 10555 10554 10554 10554 10555 10555 10555 10556 10557 10559 10560 10563 10564 10566 10566 10566 10566 10565 10564 10562 10561 10560 10559
10525 10529 10532 10534 10535 10537 10537 10536 10537 10538 10539 10540 10540 10542 10543 10542 10542 10541 10541 10542 10542 10542 10543 10544 10545 10547 10548 10548 10549 10550 10550 10549 10548 10547 10546 10545 10544 10543
10509 10512 10516 10520 10520 10522 10521 10521 10522 10524 10524 10525 10526 10526 10527 10529 10528 10528 10527 10529 10528 10529 10527 10529 10530 10531 10532 10533 10533 10533 10533 10533 10532 10531 10529 10527 10527 10526
10490 10493 10498 10503 10503 10504 10505 10506 10505 10506 10507 10508 10510 10510 10512 10512 10512 10512 10512 10512 10513 10513 10511 10512 10514 10515 10516 10517 10517 10517 10517 10516 10515 10514 10512 10511 10509 10508
10471 10474 10479 10483 10485 10487 10488 10490 10489 10489 10489 10490 10491 10493 10494 10495 10496 10496 10495 10496 10496 10496 10495 10497 10498 10498 10498 10499 10500 10500 10499 10498 10497 10496 10494 10492 10490 10488
10451 10454 10457 10461 10465 10467 10469 10470 10469 10470 10471 10471 10473 10473 10475 10476 10476 10477 10480 10480 10481 10481 10479 10479 10478 10477 10478 10480 10482 10481 10480 10478 10476 10474 10473 10472 10470 10468
10430 10434 10437 10440 10442 10445 10447 10449 10448 10449 10449 10450 10453 10455 10455 10455 10457 10458 10459 10459 10464 10462 10464 10462 10461 10459 10456 10457 10460 10461 10460 10458 10454 10453 10452 10451 10448 10446
10407 10411 10415 10418 10419 10425 10426 10425 10428 10430 10428 10427 10428 10431 10434 10435 10436 10438 10437 10436 10438 10441 10442 10442 10442 10442 10438 10439 10439 10439 10437 10433 10432 10431 10429 10428 10425 10423
10382 10386 10391 10395 10398 10402 10404 10401 10405 10404 10406 10405 10406 10407 10409 10412 10413 10413 10414 10414 10415 10417 10419 10418 10419 10418 10417 10417 10417 10414 10413 10412 10411 10409 10406 10404 10403 10399
10356 10360 10365 10369 10373 10375 10379 10380 10381 10377 10379 10380 10380 10381 10384 10387 10389 10389 10390 10391 10392 10391 10394 10396 10395 10394 10392 10392 10391 10390 10389 10388 10387 10386 10384 10380 10378 10375
10328 10333 10337 10340 10345 10348 10352 10353 10356 10354 10356 10353 10355 10356 10359 10363 10365 10366 10366 10368 10369 10369 10370 10371 10370 10370 10369 10368 10367 10365 10365 10363 10362 10360 10358 10355 10352 10348
10301 10304 10307 10311 10315 10318 10321 10324 10328 10329 10329 10333 10333 10335 10335 10336 10339 10341 10343 10345 10345 10344 10344 10345 10343 10341 10342 10342 10342 10341 10339 10337 10336 10334 10333 10330 10327 10323
10272 10275 10278 10282 10285 10289 10292 10295 10299 10302 10304 10306 10309 10311 10311 10312 10313 10316 10317 10318 10320 10321 10321 10320 10319 10317 10313 10314 10313 10313 10312 10312 10310 10308 10307 10305 10302 10299
10243 10246 10249 10252 10255 10259 10262 10266 10271 10273 10275 10276 10279 10281 10284 10287 10288 10288 10288 10289 10291 10293 10295 10296 10295 10293 10289 10288 10289 10286 10287 10285 10283 10281 10280 10278 10275 10271
10212 10215 10217 10220 10224 10227 10231 10234 10238 10241 10244 10246 10249 10251 10252 10255 10257 10260 10262 10261 10261 10262 10264 10266 10266 10266 10264 10262 10259 10258 10256 10256 10255 10252 10250 10248 10246 10244
10177 10180 10183 10187 10190 10194 10196 10199 10203 10206 10209 10212 10215 10218 10220 10223 10225 10228 10230 10232 10233 10234 10235 10235 10235 10235 10233 10231 10229 10228 10225 10224 10222 10220 10218 10216 10215 10212
10140 10144 10147 10150 10153 10156 10160 10163 10166 10169 10173 10176 10179 10182 10185 10189 10191 10193 10195 10197 10199 10199 10199 10200 10200 10201 10202 10202 10201 10200 10197 10194 10192 10189 10186 10183 10182 10180
10104 10107 10109 10112 10114 10117 10121 10124 10127 10130 10134 10137 10141 10144 10147 10150 10154 10157 10159 10160 10162 10163 10164 10165 10165 10165 10166 10167 10167 10166 10165 10162 10159 10157 10155 10152 10149 10148